Hourly Data Report for September 21, 2017

All times are specified in Local Standard Time (LST). Add 1 hour to adjust for Daylight Saving Time where and when it is observed.

BATHURST A
NEW BRUNSWICK

47°37'47.000" N
65°44'20.000" W
58.80 m
8100505
71574
ZBF

Download Data

Hourly Data (September 2017)
Hourly Data Report for September 21, 2017
Temp Definition
°C
Dew Point Temp Definition
°C
Rel Hum Definition
%
Wind Dir Definition
10's deg

Wind Spd Definition
km/h
Visibility Definition
km
Stn Press Definition
kPa
Hmdx Definition


Wind Chill Definition


Weather Definition


TIME
00:00 Legend Double Dagger 9.2 7.9 92 27 3 24.1 101.23     LegendNANA
01:00 Legend Double Dagger 8.9 7.8 93 23 4 24.1 101.29     LegendNANA
02:00 Legend Double Dagger 7.2 6.8 97   0 11.3 101.29     Clear
03:00 Legend Double Dagger 10.1 7.4 83 34 3 24.1 101.31     LegendNANA
04:00 Legend Double Dagger 10.1 7.6 85 32 4 24.1 101.35     LegendNANA
05:00 Legend Double Dagger 10.2 8.0 86 30 5 24.1 101.40     Clear
06:00 Legend Double Dagger 6.7 6.1 96 36 1 19.3 101.43     LegendNANA
07:00 Legend Double Dagger 7.0 6.6 97 18 3 24.1 101.50     LegendNANA
08:00 Legend Double Dagger 12.6 8.9 78 35 6 24.1 101.56     Mainly Clear
09:00 Legend Double Dagger 14.8 9.4 70 1 7 24.1 101.61     LegendNANA
10:00 Legend Double Dagger 15.5 7.3 58 9 9 24.1 101.62     LegendNANA
11:00 Legend Double Dagger 16.5 8.5 59 8 10 24.1 101.63     Mostly Cloudy
12:00 Legend Double Dagger 17.2 8.0 54 3 7 24.1 101.63     LegendNANA
13:00 Legend Double Dagger 17.6 7.5 51 8 7 24.1 101.61     LegendNANA
14:00 Legend Double Dagger 18.4 6.3 45 13 10 24.1 101.56     Clear
15:00 Legend Double Dagger 18.8 5.6 41 12 7 24.1 101.49     LegendNANA
16:00 Legend Double Dagger 18.9 5.9 42 9 10 24.1 101.46     LegendNANA
17:00 Legend Double Dagger 18.5 4.8 40 12 5 24.1 101.49     Clear
18:00 Legend Double Dagger 15.6 9.5 67   0 24.1 101.51     LegendNANA
19:00 Legend Double Dagger 11.1 9.1 87 12 5 24.1 101.60     LegendNANA
20:00 Legend Double Dagger 11.1 8.5 84 21 4 24.1 101.61     Clear
21:00 Legend Double Dagger 8.7 7.4 92 24 4 24.1 101.62     LegendNANA
22:00 Legend Double Dagger 8.4 7.6 95 24 4 24.1 101.61     LegendNANA
23:00 Legend Double Dagger 7.0 6.5 97 36 2 24.1 101.64     Clear

Notes on Data Quality.

Legend

  • E = Estimated
  • M = Missing
  • NA = Not Available
  • ‡ = Partner data that is not subject to review by the National Climate Archives
Date modified: